DELTA 1 DEB, 12540

Orbit data source: Space-Track

DELTA 1 DEB, 12540 is space debris in SSO originally from a launch on Thu, 29 Jul 1976 UTC launched from the Air Force Western Test Range (AFWTR). Debris objects in space refer to the collection of defunct objects orbiting the Earth. Examples of debris include non-operational satellites, rocket bodies, and fragments generated from explosions, collisions, or faulty payload assembly.

Loading next visibility...
Identifier
12540, 1976-077DV
Orbit
SSO
Country
Flag of USUS
Related business
Manufacturer
Unknown
Mission
Spacecraft
Bus & Motor
Unknown
Mass
Unknown
Launch date (UTC)
1976-07-29 (49 years ago)
Launch vehicle
Unknown
Launch site
Air Force Western Test Range (AFWTR)
Object type
Payload
Rocket body
Debris
Shape & HBR
Unknown shape, 0.1 m
Radar Cross Section
Small (<0.1 m²)

Expand to show TLE details & history
Last TLE update: 2 days ago

TLE from 2 days ago
0 DELTA 1 DEB
1 12540U 76077DV  25342.25068363 -.00000109  00000-0 -41097-3 0  9994
2 12540 102.4328  92.6078 0040496 340.1115  49.2371 12.47163632 76941
Epoch: 2025-12-08T06:00Z
TLE epoch observation values (Epoch: 2025-12-08T06:00:59.065Z)
Latitude
28.98348°
Longitude
-81.87066°
Altitude
1,458.958 km
Speed
7.145 km/s
True Right ascension
05h 42m 30s
True Declination
28° 51' 04"
Sunlit
Object was in full shadow at epoch
Visualization orbit readout
Latitude
Unknown
Longitude
Unknown
Altitude
Unknown
Speed
Unknown
Apparent Right ascension
Unknown
Apparent Declination
Unknown
Sunlit
N/A
Visualization observer readout
Local Sidereal Time
19:10:00
Azimuth
Unknown
Elevation
Unknown
Doppler factor
Unknown
Orbital elements
Apogee altitude
1,505.771 km
Perigee altitude
1,442.175 km
Semi-major axis
7,852.11 km
Eccentricity
0.00405
Inclination
102.4328°
RAAN
92.6078°
Arg. of periapsis
340.1115°
True anomaly
49.58974°
Mean anomaly
49.2371°
Eccentric anomaly
49.4133°
Mean motion
3.11935 °/min
Orbital period
115.41 mins
BSTAR
-0.00041097
Loading maneuver chart data...
Computing Atmospheric mass density...
Loading historical data...
Loading historical data...
Loading historical data...
Loading historical data...
Loading historical data...
Loading historical data...
Loading historical data...

Documentation

Showing up to 5 results
|